ACA647 CYQM-CYYZ

Flight info

Callsign ACA647
Flight time 1h 53m
Altitude 36000
Route BEMEK Q864 DERDO DCT DAXUG DCT MUTIB DCT PUPOV DCT SAVEX Q806 TUKIR RAGID6
Aircraft B38M/M-SBDE3GHIRWYZ/LB1

Departure

Time 2026-05-08 21:42
Airport Greater Moncton Roméo LeBlanc International Airport (CYQM)

Arrival

Time 2026-05-08 23:36
Airport Toronto Pearson International Airport (CYYZ)
Time Latitude Longitude Altitude Speed Heading
2026-05-08 21:32 46.11547 -64.68661 235 ft 0 kts 313°
2026-05-08 21:36 46.11552 -64.68664 235 ft 2 kts 342°
2026-05-08 21:36 46.11582 -64.68651 237 ft 7 kts 43°
2026-05-08 21:37 46.11581 -64.68585 235 ft 7 kts 126°
2026-05-08 21:37 46.11533 -64.68556 238 ft 8 kts 175°
2026-05-08 21:37 46.11478 -64.68594 239 ft 10 kts 223°
2026-05-08 21:37 46.11426 -64.68660 236 ft 9 kts 209°
2026-05-08 21:38 46.11372 -64.68621 236 ft 10 kts 134°
2026-05-08 21:38 46.11319 -64.68544 240 ft 12 kts 153°
2026-05-08 21:38 46.11244 -64.68581 236 ft 13 kts 221°
2026-05-08 21:38 46.11168 -64.68679 236 ft 17 kts 223°
2026-05-08 21:39 46.11078 -64.68800 235 ft 18 kts 222°
2026-05-08 21:39 46.10982 -64.68925 236 ft 19 kts 223°
2026-05-08 21:39 46.10882 -64.69058 240 ft 19 kts 223°
2026-05-08 21:39 46.10778 -64.69196 239 ft 22 kts 222°
2026-05-08 21:40 46.10693 -64.69337 239 ft 14 kts 238°
2026-05-08 21:40 46.10643 -64.69415 236 ft 9 kts 224°
2026-05-08 21:40 46.10601 -64.69432 235 ft 6 kts 129°
2026-05-08 21:41 46.10637 -64.69381 237 ft 7 kts 38°
2026-05-08 21:41 46.10647 -64.69368 237 ft 0 kts 43°
2026-05-08 21:41 46.10656 -64.69356 238 ft 6 kts 43°
2026-05-08 21:41 46.10777 -64.69196 239 ft 57 kts 42°
2026-05-08 21:42 46.11249 -64.68573 236 ft 127 kts 43°
2026-05-08 21:42 46.12005 -64.67581 370 ft 167 kts 41°
2026-05-08 21:42 46.12883 -64.66441 1223 ft 166 kts 43°
2026-05-08 21:42 46.13730 -64.65272 1820 ft 174 kts 43°
2026-05-08 21:43 46.14619 -64.64090 2493 ft 170 kts 40°
2026-05-08 21:43 46.15461 -64.62945 3208 ft 167 kts 44°
2026-05-08 21:43 46.16423 -64.61932 3537 ft 181 kts 14°
2026-05-08 21:43 46.17712 -64.61986 3800 ft 198 kts 336°
2026-05-08 21:44 46.18832 -64.63273 4085 ft 219 kts 301°
2026-05-08 21:44 46.19297 -64.65428 4488 ft 237 kts 271°
2026-05-08 21:44 46.19068 -64.67868 4924 ft 255 kts 259°
2026-05-08 21:44 46.18807 -64.70434 5637 ft 257 kts 268°
2026-05-08 21:45 46.18722 -64.73025 6415 ft 260 kts 268°
2026-05-08 21:45 46.18612 -64.75649 7160 ft 263 kts 267°
2026-05-08 21:45 46.18488 -64.78301 7912 ft 267 kts 267°
2026-05-08 21:45 46.18355 -64.80990 8616 ft 270 kts 266°
2026-05-08 21:46 46.18215 -64.83707 9331 ft 274 kts 266°
2026-05-08 21:46 46.18069 -64.86458 10047 ft 276 kts 266°
2026-05-08 21:46 46.17917 -64.89278 10479 ft 291 kts 266°
2026-05-08 21:46 46.17754 -64.92272 10820 ft 306 kts 266°
2026-05-08 21:47 46.17584 -64.95373 11398 ft 312 kts 265°
2026-05-08 21:47 46.17411 -64.98500 12138 ft 314 kts 265°
2026-05-08 21:47 46.17236 -65.01654 12858 ft 317 kts 265°
2026-05-08 21:47 46.17059 -65.04833 13602 ft 319 kts 265°
2026-05-08 21:48 46.16880 -65.08043 14325 ft 322 kts 265°
2026-05-08 21:48 46.16697 -65.11278 15062 ft 325 kts 265°
2026-05-08 21:48 46.16513 -65.14545 15767 ft 328 kts 265°
2026-05-08 21:48 46.16325 -65.17838 16464 ft 331 kts 265°
2026-05-08 21:49 46.16135 -65.21164 17127 ft 334 kts 265°
2026-05-08 21:49 46.15943 -65.24506 17780 ft 336 kts 265°
2026-05-08 21:49 46.15748 -65.27888 18397 ft 339 kts 264°
2026-05-08 21:49 46.15550 -65.31289 18990 ft 342 kts 264°
2026-05-08 21:50 46.15350 -65.34730 19551 ft 345 kts 264°
2026-05-08 21:50 46.15149 -65.38147 20096 ft 348 kts 264°
2026-05-08 21:50 46.14944 -65.41631 20639 ft 350 kts 264°
2026-05-08 21:50 46.14735 -65.45153 21154 ft 354 kts 264°
2026-05-08 21:51 46.14524 -65.48700 21670 ft 356 kts 265°
2026-05-08 21:51 46.14309 -65.52279 22175 ft 359 kts 265°
2026-05-08 21:51 46.14092 -65.55894 22685 ft 362 kts 265°
2026-05-08 21:51 46.13872 -65.59526 23184 ft 365 kts 265°
2026-05-08 21:52 46.13649 -65.63184 23690 ft 367 kts 265°
2026-05-08 21:52 46.13424 -65.66863 24151 ft 370 kts 265°
2026-05-08 21:52 46.13196 -65.70566 24604 ft 373 kts 265°
2026-05-08 21:52 46.12963 -65.74315 25067 ft 375 kts 265°
2026-05-08 21:53 46.12730 -65.78069 25501 ft 378 kts 264°
2026-05-08 21:53 46.12492 -65.81865 25915 ft 382 kts 264°
2026-05-08 21:53 46.12252 -65.85694 26319 ft 385 kts 264°
2026-05-08 21:53 46.12011 -65.89498 26710 ft 388 kts 264°
2026-05-08 21:54 46.11764 -65.93388 27100 ft 390 kts 264°
2026-05-08 21:54 46.11515 -65.97287 27488 ft 393 kts 264°
2026-05-08 21:54 46.11262 -66.01234 27843 ft 396 kts 263°
2026-05-08 21:54 46.11006 -66.05193 28205 ft 399 kts 263°
2026-05-08 21:55 46.10746 -66.09189 28565 ft 401 kts 263°
2026-05-08 21:55 46.10484 -66.13201 28897 ft 404 kts 263°
2026-05-08 21:55 46.10225 -66.17257 29192 ft 408 kts 263°
2026-05-08 21:56 46.09625 -66.25477 29741 ft 416 kts 261°
2026-05-08 21:56 46.09234 -66.29621 30072 ft 418 kts 259°
2026-05-08 21:56 46.08761 -66.33753 30406 ft 419 kts 258°
2026-05-08 21:56 46.08189 -66.37886 30703 ft 422 kts 256°
2026-05-08 21:57 46.07511 -66.42013 30972 ft 425 kts 254°
2026-05-08 21:57 46.06713 -66.46117 31240 ft 427 kts 251°
2026-05-08 21:57 46.05773 -66.50190 31526 ft 429 kts 249°
2026-05-08 21:57 46.04679 -66.54197 31811 ft 431 kts 245°
2026-05-08 21:58 46.03418 -66.58115 32092 ft 433 kts 242°
2026-05-08 21:58 46.01980 -66.61933 32369 ft 435 kts 239°
2026-05-08 21:58 46.00364 -66.65628 32609 ft 437 kts 235°
2026-05-08 21:58 45.98597 -66.69134 32824 ft 440 kts 232°
2026-05-08 21:59 45.96626 -66.72532 33073 ft 442 kts 228°
2026-05-08 21:59 45.94501 -66.75705 33382 ft 442 kts 224°
2026-05-08 21:59 45.92209 -66.78662 33664 ft 443 kts 220°
2026-05-08 21:59 45.89799 -66.81433 33823 ft 445 kts 223°
2026-05-08 22:00 45.87686 -66.84687 33854 ft 448 kts 234°
2026-05-08 22:00 45.86072 -66.88434 33959 ft 431 kts 245°
2026-05-08 22:00 45.85181 -66.92450 33906 ft 417 kts 258°
2026-05-08 22:01 45.85171 -67.00765 33855 ft 429 kts 278°
2026-05-08 22:01 45.85864 -67.04956 34091 ft 431 kts 280°
2026-05-08 22:01 45.86555 -67.09141 34395 ft 432 kts 280°
2026-05-08 22:01 45.87255 -67.13339 34702 ft 432 kts 280°
2026-05-08 22:02 45.87953 -67.17535 35014 ft 432 kts 280°
2026-05-08 22:02 45.88651 -67.21730 35341 ft 431 kts 280°
2026-05-08 22:02 45.89348 -67.25926 35624 ft 431 kts 280°
2026-05-08 22:02 45.90032 -67.30067 35788 ft 433 kts 280°
2026-05-08 22:03 45.90723 -67.34274 35800 ft 433 kts 280°
2026-05-08 22:03 45.92103 -67.42686 35801 ft 431 kts 280°
2026-05-08 22:04 45.93474 -67.51088 35808 ft 432 kts 280°
2026-05-08 22:04 45.94837 -67.59490 35802 ft 432 kts 280°
2026-05-08 22:05 45.96193 -67.67888 35812 ft 432 kts 280°
2026-05-08 22:05 45.97509 -67.76311 35808 ft 431 kts 275°
2026-05-08 22:05 45.97522 -67.80567 35814 ft 424 kts 261°
2026-05-08 22:06 45.97187 -67.84802 35810 ft 427 kts 263°
2026-05-08 22:06 45.96525 -67.93312 35814 ft 428 kts 262°
2026-05-08 22:07 45.95654 -68.01693 35406 ft 428 kts 257°
2026-05-08 22:07 45.95253 -68.05872 35467 ft 412 kts 264°
2026-05-08 22:07 45.95004 -68.09843 35854 ft 392 kts 262°
2026-05-08 22:08 45.94406 -68.17459 35839 ft 374 kts 261°
2026-05-08 22:08 45.93781 -68.24712 35830 ft 357 kts 261°
2026-05-08 22:09 45.93167 -68.31595 35825 ft 338 kts 261°
2026-05-08 22:09 45.92579 -68.38129 35627 ft 326 kts 260°
2026-05-08 22:09 45.92281 -68.41410 34998 ft 336 kts 261°
2026-05-08 22:10 45.91973 -68.44808 34313 ft 349 kts 261°
2026-05-08 22:10 45.91652 -68.48330 33652 ft 362 kts 261°
2026-05-08 22:10 45.91324 -68.51932 33007 ft 374 kts 261°
2026-05-08 22:10 45.90980 -68.55695 32335 ft 386 kts 261°
2026-05-08 22:11 45.90619 -68.59630 31610 ft 399 kts 262°
2026-05-08 22:11 45.90249 -68.63653 30874 ft 412 kts 262°
2026-05-08 22:11 45.89872 -68.67732 30164 ft 424 kts 262°
2026-05-08 22:11 45.89472 -68.72032 29531 ft 433 kts 262°
2026-05-08 22:12 45.89076 -68.76278 29088 ft 436 kts 262°
2026-05-08 22:12 45.88672 -68.80593 28773 ft 436 kts 262°
2026-05-08 22:12 45.88266 -68.84900 28486 ft 436 kts 262°
2026-05-08 22:12 45.87858 -68.89214 28152 ft 436 kts 262°
2026-05-08 22:13 45.87446 -68.93551 27823 ft 437 kts 262°
2026-05-08 22:13 45.87030 -68.97876 27510 ft 437 kts 262°
2026-05-08 22:13 45.86616 -69.02209 27119 ft 439 kts 262°
2026-05-08 22:13 45.86201 -69.06548 26777 ft 440 kts 262°
2026-05-08 22:14 45.85782 -69.10902 26409 ft 441 kts 262°
2026-05-08 22:14 45.85358 -69.15271 26046 ft 442 kts 262°
2026-05-08 22:14 45.85078 -69.18157 25817 ft 443 kts 262°
2026-05-08 22:14 45.84649 -69.22552 25490 ft 444 kts 262°
2026-05-08 22:15 45.84220 -69.26942 25265 ft 444 kts 262°
2026-05-08 22:15 45.83789 -69.31321 25125 ft 442 kts 263°
2026-05-08 22:15 45.83369 -69.35619 24859 ft 429 kts 263°
2026-05-08 22:15 45.82953 -69.39834 24872 ft 424 kts 263°
2026-05-08 22:16 45.82548 -69.43927 25577 ft 415 kts 263°
2026-05-08 22:16 45.82137 -69.48024 26481 ft 404 kts 263°
2026-05-08 22:16 45.81748 -69.51902 27372 ft 393 kts 263°
2026-05-08 22:16 45.81363 -69.55726 28266 ft 381 kts 263°
2026-05-08 22:17 45.80990 -69.59424 29136 ft 369 kts 263°
2026-05-08 22:17 45.80626 -69.63012 29902 ft 360 kts 263°
2026-05-08 22:17 45.80261 -69.66610 29996 ft 370 kts 263°
2026-05-08 22:18 45.79502 -69.74048 30445 ft 380 kts 263°
2026-05-08 22:18 45.79115 -69.77811 30753 ft 382 kts 263°
2026-05-08 22:18 45.78726 -69.81586 31060 ft 384 kts 262°
2026-05-08 22:18 45.78334 -69.85383 31373 ft 386 kts 262°
2026-05-08 22:19 45.77939 -69.89193 31682 ft 388 kts 262°
2026-05-08 22:19 45.77541 -69.93018 31975 ft 389 kts 262°
2026-05-08 22:19 45.77140 -69.96869 32252 ft 392 kts 262°
2026-05-08 22:19 45.76734 -70.00742 32538 ft 393 kts 262°
2026-05-08 22:20 45.76332 -70.04574 32827 ft 395 kts 262°
2026-05-08 22:20 45.75920 -70.08481 33100 ft 397 kts 262°
2026-05-08 22:20 45.75506 -70.12393 33395 ft 398 kts 262°
2026-05-08 22:20 45.75090 -70.16313 33679 ft 399 kts 262°
2026-05-08 22:21 45.74672 -70.20256 33936 ft 401 kts 262°
2026-05-08 22:21 45.74251 -70.24209 34209 ft 402 kts 262°
2026-05-08 22:21 45.73828 -70.28171 34441 ft 404 kts 262°
2026-05-08 22:21 45.73399 -70.32164 34665 ft 407 kts 262°
2026-05-08 22:22 45.72967 -70.36181 34903 ft 409 kts 262°
2026-05-08 22:22 45.72526 -70.40209 35128 ft 410 kts 261°
2026-05-08 22:22 45.72075 -70.44254 35362 ft 412 kts 261°
2026-05-08 22:22 45.71625 -70.48315 35562 ft 414 kts 261°
2026-05-08 22:23 45.71171 -70.52397 35753 ft 416 kts 261°
2026-05-08 22:23 45.70261 -70.60553 35835 ft 417 kts 261°
2026-05-08 22:24 45.69345 -70.68708 35837 ft 415 kts 261°
2026-05-08 22:24 45.68423 -70.76862 35859 ft 415 kts 261°
2026-05-08 22:25 45.67799 -70.85058 35867 ft 414 kts 265°
2026-05-08 22:25 45.67287 -70.93259 35864 ft 414 kts 265°
2026-05-08 22:26 45.66752 -71.01393 35862 ft 413 kts 265°
2026-05-08 22:26 45.66204 -71.09608 35862 ft 413 kts 265°
2026-05-08 22:27 45.65656 -71.17725 35863 ft 413 kts 265°
2026-05-08 22:27 45.65089 -71.25885 35871 ft 412 kts 265°
2026-05-08 22:28 45.64535 -71.34057 35870 ft 413 kts 265°
2026-05-08 22:28 45.63969 -71.42228 35865 ft 413 kts 265°
2026-05-08 22:29 45.63407 -71.50395 35874 ft 413 kts 265°
2026-05-08 22:29 45.62844 -71.58508 35871 ft 412 kts 265°
2026-05-08 22:30 45.62272 -71.66655 35873 ft 412 kts 265°
2026-05-08 22:30 45.61695 -71.74803 35872 ft 412 kts 265°
2026-05-08 22:31 45.61111 -71.82957 35869 ft 412 kts 265°
2026-05-08 22:31 45.60521 -71.91105 35871 ft 412 kts 265°
2026-05-08 22:32 45.59926 -71.99258 35872 ft 412 kts 265°
2026-05-08 22:32 45.59330 -72.07334 35871 ft 412 kts 265°
2026-05-08 22:33 45.58724 -72.15456 35858 ft 411 kts 265°
2026-05-08 22:33 45.58115 -72.23563 35867 ft 411 kts 265°
2026-05-08 22:34 45.57500 -72.31664 35858 ft 410 kts 265°
2026-05-08 22:34 45.57306 -72.39775 35875 ft 409 kts 269°
2026-05-08 22:35 45.57165 -72.47884 35880 ft 409 kts 269°
2026-05-08 22:35 45.56997 -72.55986 35881 ft 408 kts 269°
2026-05-08 22:36 45.56819 -72.64082 35881 ft 407 kts 269°
2026-05-08 22:36 45.56636 -72.72174 35870 ft 409 kts 269°
2026-05-08 22:37 45.56447 -72.80286 35872 ft 409 kts 269°
2026-05-08 22:37 45.56252 -72.88391 35871 ft 408 kts 269°
2026-05-08 22:38 45.56052 -72.96480 35871 ft 407 kts 269°
2026-05-08 22:38 45.55846 -73.04548 35859 ft 407 kts 269°
2026-05-08 22:39 45.55636 -73.12600 35869 ft 406 kts 269°
2026-05-08 22:39 45.55419 -73.20649 35878 ft 406 kts 269°
2026-05-08 22:40 45.55200 -73.28614 35871 ft 406 kts 269°
2026-05-08 22:40 45.54972 -73.36656 35875 ft 406 kts 269°
2026-05-08 22:41 45.54741 -73.44649 35871 ft 406 kts 269°
2026-05-08 22:41 45.54501 -73.52736 35872 ft 406 kts 269°
2026-05-08 22:42 45.54258 -73.60729 35861 ft 406 kts 269°
2026-05-08 22:42 45.54008 -73.68779 35871 ft 405 kts 269°
2026-05-08 22:43 45.53753 -73.76791 35866 ft 405 kts 269°
2026-05-08 22:43 45.53492 -73.84819 35865 ft 405 kts 268°
2026-05-08 22:44 45.53226 -73.92829 35860 ft 404 kts 268°
2026-05-08 22:44 45.52955 -74.00844 35864 ft 405 kts 268°
2026-05-08 22:45 45.52678 -74.08856 35859 ft 404 kts 268°
2026-05-08 22:45 45.52396 -74.16846 35862 ft 403 kts 268°
2026-05-08 22:46 45.52108 -74.24837 35861 ft 403 kts 268°
2026-05-08 22:46 45.51818 -74.32786 35861 ft 403 kts 268°
2026-05-08 22:47 45.51522 -74.40765 35863 ft 403 kts 268°
2026-05-08 22:47 45.50966 -74.48711 35874 ft 403 kts 260°
2026-05-08 22:48 45.49890 -74.56565 35873 ft 404 kts 261°
2026-05-08 22:48 45.48807 -74.64360 35872 ft 403 kts 261°
2026-05-08 22:49 45.47701 -74.72254 35872 ft 403 kts 261°
2026-05-08 22:49 45.46049 -74.83958 35869 ft 402 kts 261°
2026-05-08 22:50 45.44939 -74.91776 35860 ft 402 kts 261°
2026-05-08 22:50 45.43823 -74.99593 35860 ft 402 kts 261°
2026-05-08 22:51 45.42701 -75.07381 35866 ft 401 kts 260°
2026-05-08 22:51 45.41574 -75.15144 35853 ft 401 kts 260°
2026-05-08 22:52 45.40440 -75.22926 35865 ft 402 kts 260°
2026-05-08 22:52 45.39300 -75.30706 35859 ft 402 kts 260°
2026-05-08 22:53 45.38161 -75.38439 35856 ft 402 kts 260°
2026-05-08 22:53 45.37012 -75.46199 35862 ft 401 kts 260°
2026-05-08 22:54 45.35859 -75.53948 35862 ft 400 kts 260°
2026-05-08 22:54 45.34700 -75.61698 35862 ft 400 kts 260°
2026-05-08 22:55 45.33537 -75.69444 35860 ft 401 kts 260°
2026-05-08 22:55 45.32368 -75.77185 35861 ft 400 kts 260°
2026-05-08 22:56 45.31195 -75.84920 35851 ft 400 kts 260°
2026-05-08 22:56 45.30022 -75.92610 35864 ft 400 kts 260°
2026-05-08 22:57 45.28839 -76.00336 35862 ft 400 kts 259°
2026-05-08 22:57 45.27652 -76.08050 35864 ft 399 kts 259°
2026-05-08 22:58 45.26462 -76.15750 35860 ft 399 kts 259°
2026-05-08 22:58 45.24974 -76.23316 35858 ft 402 kts 245°
2026-05-08 22:59 45.21559 -76.29712 35862 ft 410 kts 235°
2026-05-08 22:59 45.17890 -76.35918 35869 ft 410 kts 234°
2026-05-08 23:00 45.14172 -76.42066 35875 ft 410 kts 234°
2026-05-08 23:00 45.11077 -76.47149 35864 ft 410 kts 234°
2026-05-08 23:01 45.06752 -76.54235 35874 ft 408 kts 234°
2026-05-08 23:01 45.03031 -76.60316 35876 ft 408 kts 234°
2026-05-08 23:02 44.99939 -76.65359 35880 ft 408 kts 234°
2026-05-08 23:02 44.96196 -76.71451 35881 ft 408 kts 234°
2026-05-08 23:03 44.92492 -76.77467 35888 ft 408 kts 234°
2026-05-08 23:03 44.88767 -76.83503 35886 ft 407 kts 234°
2026-05-08 23:04 44.85038 -76.89535 35887 ft 407 kts 234°
2026-05-08 23:04 44.81344 -76.95558 35861 ft 396 kts 239°
2026-05-08 23:05 44.79945 -76.98787 35729 ft 378 kts 245°
2026-05-08 23:05 44.78655 -77.01968 35389 ft 372 kts 245°
2026-05-08 23:05 44.77391 -77.05083 34881 ft 370 kts 245°
2026-05-08 23:05 44.76116 -77.08230 34358 ft 369 kts 245°
2026-05-08 23:06 44.74851 -77.11357 33868 ft 367 kts 246°
2026-05-08 23:06 44.73594 -77.14457 33387 ft 364 kts 246°
2026-05-08 23:06 44.72343 -77.17543 32915 ft 361 kts 246°
2026-05-08 23:06 44.71102 -77.20598 32443 ft 359 kts 246°
2026-05-08 23:07 44.69868 -77.23634 31982 ft 356 kts 246°
2026-05-08 23:07 44.68646 -77.26639 31530 ft 353 kts 246°
2026-05-08 23:07 44.67431 -77.29622 31086 ft 349 kts 246°
2026-05-08 23:07 44.66228 -77.32571 30649 ft 346 kts 246°
2026-05-08 23:08 44.65038 -77.35489 30222 ft 343 kts 246°
2026-05-08 23:08 44.63855 -77.38384 29802 ft 340 kts 246°
2026-05-08 23:08 44.62683 -77.41249 29387 ft 337 kts 246°
2026-05-08 23:08 44.61520 -77.44089 28978 ft 333 kts 246°
2026-05-08 23:09 44.60370 -77.46897 28578 ft 330 kts 246°
2026-05-08 23:09 44.59229 -77.49677 28182 ft 327 kts 246°
2026-05-08 23:09 44.58099 -77.52430 27793 ft 324 kts 246°
2026-05-08 23:09 44.56976 -77.55163 27406 ft 322 kts 246°
2026-05-08 23:10 44.55864 -77.57866 27025 ft 319 kts 246°
2026-05-08 23:10 44.54757 -77.60554 26648 ft 316 kts 246°
2026-05-08 23:10 44.53664 -77.63207 26280 ft 314 kts 246°
2026-05-08 23:10 44.52591 -77.65809 25920 ft 311 kts 246°
2026-05-08 23:11 44.51512 -77.68421 25534 ft 309 kts 246°
2026-05-08 23:11 44.50436 -77.71019 25141 ft 307 kts 246°
2026-05-08 23:11 44.49367 -77.73601 24804 ft 304 kts 246°
2026-05-08 23:11 44.48311 -77.76149 24467 ft 301 kts 246°
2026-05-08 23:12 44.47265 -77.78668 24126 ft 298 kts 246°
2026-05-08 23:12 44.46230 -77.81162 23789 ft 295 kts 246°
2026-05-08 23:12 44.45203 -77.83633 23452 ft 292 kts 246°
2026-05-08 23:12 44.44186 -77.86076 23120 ft 289 kts 246°
2026-05-08 23:13 44.43178 -77.88497 22792 ft 286 kts 246°
2026-05-08 23:13 44.42180 -77.90893 22468 ft 283 kts 246°
2026-05-08 23:13 44.41191 -77.93264 22148 ft 281 kts 246°
2026-05-08 23:13 44.40200 -77.95640 21827 ft 285 kts 246°
2026-05-08 23:14 44.39193 -77.98049 21488 ft 289 kts 246°
2026-05-08 23:14 44.38174 -78.00487 21158 ft 293 kts 246°
2026-05-08 23:14 44.37140 -78.02959 20830 ft 296 kts 245°
2026-05-08 23:14 44.36092 -78.05462 20487 ft 300 kts 245°
2026-05-08 23:15 44.35027 -78.07999 20084 ft 306 kts 245°
2026-05-08 23:15 44.33940 -78.10586 19738 ft 309 kts 245°
2026-05-08 23:15 44.32863 -78.13147 19415 ft 311 kts 245°
2026-05-08 23:15 44.31765 -78.15755 19058 ft 311 kts 244°
2026-05-08 23:16 44.30681 -78.18330 18739 ft 301 kts 245°
2026-05-08 23:16 44.29637 -78.20805 18415 ft 291 kts 245°
2026-05-08 23:16 44.28626 -78.23202 18093 ft 284 kts 245°
2026-05-08 23:16 44.27629 -78.25562 17783 ft 281 kts 245°
2026-05-08 23:17 44.26645 -78.27890 17526 ft 276 kts 244°
2026-05-08 23:17 44.25677 -78.30179 17251 ft 272 kts 244°
2026-05-08 23:17 44.24721 -78.32438 16962 ft 268 kts 244°
2026-05-08 23:17 44.23778 -78.34664 16674 ft 265 kts 244°
2026-05-08 23:18 44.22845 -78.36864 16376 ft 262 kts 244°
2026-05-08 23:18 44.21922 -78.39038 16084 ft 260 kts 244°
2026-05-08 23:18 44.21006 -78.41196 15792 ft 259 kts 244°
2026-05-08 23:18 44.20077 -78.43382 15492 ft 264 kts 244°
2026-05-08 23:19 44.19135 -78.45597 15188 ft 268 kts 244°
2026-05-08 23:19 44.18183 -78.47832 14889 ft 268 kts 244°
2026-05-08 23:19 44.17234 -78.50066 14594 ft 269 kts 244°
2026-05-08 23:19 44.16287 -78.52283 14296 ft 269 kts 243°
2026-05-08 23:20 44.15321 -78.54547 13990 ft 269 kts 243°
2026-05-08 23:20 44.14365 -78.56786 13679 ft 269 kts 243°
2026-05-08 23:20 44.13421 -78.58995 13377 ft 268 kts 243°
2026-05-08 23:20 44.12468 -78.61224 13078 ft 268 kts 243°
2026-05-08 23:21 44.11519 -78.63441 12773 ft 266 kts 243°
2026-05-08 23:21 44.10569 -78.65659 12472 ft 267 kts 243°
2026-05-08 23:21 44.09618 -78.67879 12165 ft 267 kts 243°
2026-05-08 23:21 44.08671 -78.70085 11863 ft 264 kts 243°
2026-05-08 23:22 44.07733 -78.72269 11569 ft 262 kts 243°
2026-05-08 23:22 44.06813 -78.74411 11275 ft 259 kts 243°
2026-05-08 23:22 44.05882 -78.76580 10976 ft 257 kts 242°
2026-05-08 23:22 44.04968 -78.78706 10690 ft 255 kts 242°
2026-05-08 23:23 44.04019 -78.80771 10389 ft 255 kts 234°
2026-05-08 23:23 44.02824 -78.82596 10109 ft 254 kts 231°
2026-05-08 23:23 44.01623 -78.84385 9861 ft 255 kts 231°
2026-05-08 23:23 44.00404 -78.86207 9579 ft 260 kts 230°
2026-05-08 23:24 43.99164 -78.88065 9286 ft 265 kts 230°
2026-05-08 23:24 43.97902 -78.89958 8977 ft 268 kts 230°
2026-05-08 23:24 43.96625 -78.91875 8646 ft 271 kts 230°
2026-05-08 23:24 43.95349 -78.93785 8361 ft 268 kts 230°
2026-05-08 23:25 43.94087 -78.95674 8069 ft 266 kts 230°
2026-05-08 23:25 43.92851 -78.97523 7767 ft 264 kts 230°
2026-05-08 23:25 43.91609 -78.99380 7478 ft 262 kts 230°
2026-05-08 23:25 43.90380 -79.01216 7305 ft 255 kts 230°
2026-05-08 23:26 43.89197 -79.02977 7190 ft 244 kts 230°
2026-05-08 23:26 43.88060 -79.04673 7102 ft 234 kts 231°
2026-05-08 23:26 43.87288 -79.06582 6846 ft 226 kts 257°
2026-05-08 23:26 43.87174 -79.08745 6592 ft 223 kts 270°
2026-05-08 23:27 43.87171 -79.10881 6477 ft 222 kts 270°
2026-05-08 23:27 43.87188 -79.13043 6398 ft 226 kts 271°
2026-05-08 23:27 43.87219 -79.15226 6203 ft 225 kts 271°
2026-05-08 23:27 43.87256 -79.17393 6060 ft 225 kts 271°
2026-05-08 23:28 43.87297 -79.19529 5909 ft 224 kts 271°
2026-05-08 23:28 43.87344 -79.21716 5757 ft 224 kts 272°
2026-05-08 23:28 43.87391 -79.23876 5573 ft 225 kts 271°
2026-05-08 23:28 43.87438 -79.26011 5413 ft 225 kts 271°
2026-05-08 23:29 43.87487 -79.28163 5237 ft 221 kts 271°
2026-05-08 23:29 43.87348 -79.30243 5074 ft 215 kts 250°
2026-05-08 23:29 43.86565 -79.31932 5022 ft 203 kts 229°
2026-05-08 23:29 43.85611 -79.33312 5027 ft 196 kts 228°
2026-05-08 23:30 43.84670 -79.34673 5017 ft 196 kts 228°
2026-05-08 23:30 43.83742 -79.36031 4959 ft 191 kts 229°
2026-05-08 23:30 43.82834 -79.37364 4677 ft 192 kts 228°
2026-05-08 23:30 43.81913 -79.38705 4381 ft 192 kts 228°
2026-05-08 23:31 43.80998 -79.40042 4143 ft 190 kts 227°
2026-05-08 23:31 43.80111 -79.41341 3936 ft 186 kts 228°
2026-05-08 23:31 43.79236 -79.42623 3742 ft 179 kts 228°
2026-05-08 23:31 43.78385 -79.43869 3580 ft 178 kts 227°
2026-05-08 23:32 43.77533 -79.45116 3370 ft 178 kts 227°
2026-05-08 23:32 43.76683 -79.46361 3135 ft 177 kts 227°
2026-05-08 23:32 43.75835 -79.47600 2911 ft 177 kts 227°
2026-05-08 23:32 43.75010 -79.48806 2688 ft 165 kts 226°
2026-05-08 23:33 43.74258 -79.49905 2488 ft 153 kts 225°
2026-05-08 23:33 43.73539 -79.50955 2285 ft 147 kts 225°
2026-05-08 23:33 43.72846 -79.51967 2081 ft 144 kts 225°
2026-05-08 23:33 43.72172 -79.52951 1898 ft 144 kts 224°
2026-05-08 23:34 43.71488 -79.53952 1707 ft 144 kts 223°
2026-05-08 23:34 43.70802 -79.54953 1516 ft 144 kts 223°
2026-05-08 23:34 43.70110 -79.55954 1323 ft 143 kts 225°
2026-05-08 23:34 43.69454 -79.56937 1125 ft 142 kts 226°
2026-05-08 23:35 43.68764 -79.57943 915 ft 143 kts 226°
2026-05-08 23:35 43.68069 -79.58936 749 ft 147 kts 227°
2026-05-08 23:35 43.67388 -79.59923 584 ft 143 kts 227°
2026-05-08 23:35 43.66751 -79.60850 562 ft 112 kts 226°
2026-05-08 23:36 43.66375 -79.61398 558 ft 50 kts 226°
2026-05-08 23:36 43.66190 -79.61665 562 ft 37 kts 226°
2026-05-08 23:36 43.66044 -79.61901 563 ft 30 kts 237°
2026-05-08 23:36 43.65983 -79.62119 562 ft 14 kts 259°
2026-05-08 23:37 43.66028 -79.62246 563 ft 16 kts 317°
2026-05-08 23:37 43.66110 -79.62349 564 ft 17 kts 317°
2026-05-08 23:37 43.66203 -79.62470 560 ft 15 kts 318°
2026-05-08 23:37 43.66273 -79.62501 560 ft 12 kts 12°
2026-05-08 23:38 43.66341 -79.62426 562 ft 13 kts 43°
2026-05-08 23:38 43.66408 -79.62340 564 ft 14 kts 43°
2026-05-08 23:38 43.66482 -79.62245 565 ft 15 kts 43°
2026-05-08 23:38 43.66566 -79.62138 566 ft 17 kts 42°
2026-05-08 23:39 43.66650 -79.62031 567 ft 19 kts 42°
2026-05-08 23:39 43.66753 -79.61902 568 ft 21 kts 42°
2026-05-08 23:39 43.66860 -79.61765 569 ft 23 kts 42°
2026-05-08 23:39 43.66983 -79.61612 569 ft 24 kts 43°
2026-05-08 23:40 43.67102 -79.61461 570 ft 24 kts 42°
2026-05-08 23:40 43.67202 -79.61319 567 ft 11 kts 52°
2026-05-08 23:40 43.67262 -79.61256 564 ft 11 kts 351°
2026-05-08 23:40 43.67329 -79.61329 564 ft 14 kts 317°
2026-05-08 23:41 43.67404 -79.61428 565 ft 16 kts 316°
2026-05-08 23:41 43.67487 -79.61538 565 ft 18 kts 317°
2026-05-08 23:41 43.67585 -79.61663 565 ft 20 kts 317°
2026-05-08 23:41 43.67693 -79.61803 565 ft 23 kts 317°
2026-05-08 23:42 43.67810 -79.61957 565 ft 24 kts 316°
2026-05-08 23:42 43.67907 -79.62059 564 ft 15 kts 349°
2026-05-08 23:42 43.67978 -79.62006 564 ft 10 kts 59°
2026-05-08 23:42 43.67992 -79.61946 564 ft 10 kts 74°
2026-05-08 23:43 43.68035 -79.61850 564 ft 9 kts 39°
2026-05-08 23:43 43.68081 -79.61793 564 ft 9 kts 45°
2026-05-08 23:43 43.68107 -79.61735 564 ft 3 kts 98°
2026-05-08 23:43 43.68098 -79.61718 564 ft 3 kts 132°
2026-05-08 23:44 43.68084 -79.61702 564 ft 5 kts 142°
2026-05-08 23:44 43.68068 -79.61675 564 ft 3 kts 88°
2026-05-08 23:44 43.68088 -79.61641 564 ft 4 kts 62°
2026-05-08 23:44 43.68087 -79.61621 564 ft 2 kts 116°
2026-05-08 23:45 43.68078 -79.61613 564 ft 2 kts 156°
2026-05-08 23:45 43.68067 -79.61602 564 ft 0 kts 140°